Weather History for KBBW - October, 2012

Change the Weather History Date:

Thursday, October 4, 2012

  Actual Average Record
Temperature  
Mean Temperature 38 °F 54 °F  
Max Temperature 52 °F 68 °F 97 °F (1909)
Min Temperature 23 °F 40 °F 22 °F (1953)
Degree Days  
Heating Degree Days 27 11  
Month to date heating degree days 54 43  
Cooling Degree Days 0 0  
Month to date cooling degree days 0 2  
Year to date cooling degree days 1077 764  
Moisture  
Dew Point 28 °F    
Average Humidity 60    
Maximum Humidity 82    
Minimum Humidity 38    
Precipitation  
Precipitation 0.00 in 0.08 in 0.90 in (1944)
Sea Level Pressure  
Sea Level Pressure 30.29 in    
Wind  
Wind Speed 15 mph (NNW)    
Max Wind Speed 32 mph    
Max Gust Speed 44 mph    
Visibility 10 miles    
Events      
T = Trace of Precipitation, MM = Missing Value Source: NWS Daily Summary

Daily Weather History Graph

Daily Weather History Graph

Search for Another Location

Airport or City:

Trip Planner

Search our weather history database for the weather conditions in past years. The results will help you decide how hot, cold, wet, or windy it might be!

Date:

Astronomy

Oct. 04, 2012 Rise Set
Actual Time 7:39 AM CDT 7:14 PM CDT
Civil Twilight 7:11 AM CDT 7:42 PM CDT
Nautical Twilight 6:39 AM CDT 8:14 PM CDT
Astronomical Twilight 6:07 AM CDT 8:46 PM CDT
Moon 9:48 PM CDT (10/4) 12:00 PM CDT (10/4)
Length of Visible Light 12h 30m
Length of Day
11h 35m
Waning Gibbous, 82% of the Moon is Illuminated
Oct 4
Waning Gibbous
Oct 8
Last Quarter
Oct 15
New
Oct 21
First Quarter
Oct 29
Full

Hourly Weather History & Observations

Time (CDT) Temp. Windchill Dew Point Humidity Pressure Visibility Wind Dir Wind Speed Gust Speed Precip Events Conditions
12:53 AM 43.0 °F 34.8 °F 35.1 °F 74% 30.13 in 10.0 mi NNW 18.4 mph 31.1 mph N/A   Mostly Cloudy
1:53 AM 43.0 °F 36.0 °F 33.1 °F 68% 30.13 in 10.0 mi NNW 13.8 mph 28.8 mph N/A   Mostly Cloudy
2:53 AM 39.9 °F 32.1 °F 32.0 °F 73% 30.14 in 10.0 mi NNW 13.8 mph 29.9 mph N/A   Clear
3:53 AM 39.9 °F 30.0 °F 30.9 °F 70% 30.14 in 10.0 mi NNW 21.9 mph 33.4 mph N/A   Scattered Clouds
4:53 AM 39.9 °F 29.2 °F 30.9 °F 70% 30.17 in 10.0 mi NNW 25.3 mph 39.1 mph N/A   Partly Cloudy
5:53 AM 39.0 °F 28.3 °F 30.9 °F 73% 30.21 in 10.0 mi NNW 24.2 mph 32.2 mph N/A   Clear
6:53 AM 37.0 °F 26.4 °F 30.9 °F 79% 30.25 in 10.0 mi NNW 20.7 mph 31.1 mph N/A   Partly Cloudy
7:09 AM 37.4 °F 27.5 °F 30.2 °F 75% 30.26 in 10.0 mi NNW 18.4 mph 27.6 mph N/A   Mostly Cloudy
7:26 AM 37.4 °F 27.8 °F 30.2 °F 75% 30.26 in 10.0 mi NNW 17.3 mph 28.8 mph N/A   Scattered Clouds
7:53 AM 36.0 °F 26.0 °F 30.0 °F 79% 30.27 in 10.0 mi NNW 17.3 mph 27.6 mph N/A   Clear
8:53 AM 37.9 °F 27.9 °F 30.0 °F 73% 30.32 in 10.0 mi NNW 19.6 mph 28.8 mph N/A   Partly Cloudy
9:09 AM 37.4 °F 27.5 °F 30.2 °F 75% 30.31 in 10.0 mi NNW 18.4 mph 28.8 mph N/A   Mostly Cloudy
9:53 AM 39.9 °F 30.8 °F 28.9 °F 65% 30.34 in 10.0 mi NNW 18.4 mph 28.8 mph N/A   Mostly Cloudy
10:36 AM 42.8 °F 33.3 °F 26.6 °F 53% 30.32 in 10.0 mi NNW 24.2 mph 33.4 mph N/A   Scattered Clouds
10:53 AM 44.1 °F 36.5 °F 27.0 °F 51% 30.35 in 10.0 mi NNW 17.3 mph 31.1 mph N/A   Clear
11:53 AM 46.9 °F - 27.0 °F 46% 30.35 in 10.0 mi North 23.0 mph 29.9 mph N/A   Clear
12:53 PM 48.9 °F - 27.0 °F 43% 30.35 in 10.0 mi North 19.6 mph 28.8 mph N/A   Clear
1:53 PM 50.0 °F - 28.0 °F 43% 30.32 in 10.0 mi North 16.1 mph 23.0 mph N/A   Clear
2:53 PM 51.1 °F - 27.0 °F 39% 30.32 in 10.0 mi North 18.4 mph 24.2 mph N/A   Clear
3:53 PM 51.1 °F - 26.1 °F 38% 30.31 in 10.0 mi NNE 13.8 mph 21.9 mph N/A   Clear
4:53 PM 51.8 °F - 26.6 °F 38% 30.28 in 10.0 mi North 18.4 mph 26.5 mph N/A   Clear
5:53 PM 48.9 °F - 26.1 °F 41% 30.31 in 10.0 mi North 12.7 mph - N/A   Clear
6:53 PM 46.0 °F 41.0 °F 26.1 °F 46% 30.33 in 10.0 mi North 10.4 mph - N/A   Clear
7:53 PM 39.0 °F 34.8 °F 25.0 °F 57% 30.36 in 10.0 mi North 5.8 mph - N/A   Clear
8:53 PM 35.1 °F 29.3 °F 25.0 °F 67% 30.38 in 10.0 mi NNW 6.9 mph - N/A   Clear
9:53 PM 35.1 °F 28.6 °F 26.1 °F 70% 30.39 in 10.0 mi North 8.1 mph - N/A   Clear
10:53 PM 30.9 °F 25.2 °F 24.1 °F 76% 30.40 in 10.0 mi North 5.8 mph - N/A   Clear
11:53 PM 28.0 °F 22.8 °F 23.0 °F 81% 30.39 in 10.0 mi North 4.6 mph - N/A   Clear